Regional Weather Roundup
Issued by NWS

Home | Current Version | Previous Version | Text Only | Print | Product List | Glossary Off
Versions: 1 2 3 4 5 6 7 8 9 10 11 12 13 14 15 16 17 18 19 20 21 22 23 24 25 26 27 28 29 30 31 32 33 34 35 36 37 38 39 40 41 42 43 44 45 46 47 48 49 50

000
ASUS43 KDTX 162010
RWRMI
MICHIGAN HOURLY REGIONAL WEATHER ROUNDUP
NATIONAL WEATHER SERVICE DETROIT/PONTIAC MI
ISSUED BY NATIONAL WEATHER SERVICE GRAND RAPIDS MI
400 PM EDT WED AUG 16 2017

NOTE: "FAIR" INDICATES FEW OR NO CLOUDS BELOW 12,000 FEET WITH NO
SIGNIFICANT WEATHER AND/OR OBSTRUCTION TO VISIBILITY.

MIZ047>049-052>055-059>063-066>070-074>076-081>083-162100-
SOUTHEAST LOWER MICHIGAN

CITY           SKY/WX    TMP DP  RH WIND       PRES   REMARKS
ADRIAN         SUNNY     86  60  41 SE8       30.02F
ALMA           MOSUNNY   82  59  45 SE3       30.01F
ANN ARBOR      MOSUNNY   83  62  49 VRB6      30.02F
BAD AXE        MOSUNNY   76  59  55 E7        30.07S
DETROIT CITY   SUNNY     81  59  47 E9        30.04F
DETROIT        MOSUNNY   83  60  45 S9        30.04F
FLINT          MOSUNNY   81  62  52 SE6       30.03F
GROSSE ILE     SUNNY     79  63  57 S10       30.03F
HILLSDALE      MOSUNNY   82  61  47 CALM      30.02F
HOWELL         MOSUNNY   84  58  40 SE9       30.03F

CITY           SKY/WX    TMP DP  RH WIND       PRES   REMARKS
JACKSON          N/A    N/A N/A N/A MISG      30.01F
LANSING        MOSUNNY   82  61  48 S7        30.01F
MASON          PTSUNNY   84  63  48 S6        30.01F
MONROE         SUNNY     80  62  55 SE9       30.03F
MT. CLEMENS    MOSUNNY   80  61  52 E7        30.05F
PONTIAC        MOSUNNY   82  59  45 VRB7      30.03F
PORT HOPE        N/A     71  65  81 E12       30.06F
PORT HURON     PTSUNNY   79  61  53 NE5       30.05F
TRI CITIES     PTSUNNY   80  64  58 E6        30.03F
YPSILANTI      SUNNY     86  62  44 S7        30.03F
$$
MIZ043>046-050>051-056>058-064>065-071>073-077>080-162100-
SOUTHWEST LOWER MICHIGAN

CITY           SKY/WX    TMP DP  RH WIND       PRES   REMARKS
BATTLE CREEK   PTSUNNY   85  63  47 S8        30.00F
BENTON HARBOR  PTSUNNY   85  67  54 VRB3      29.95F
BIG RAPIDS     PTSUNNY   81  60  49 S6        29.99F
COLDWATER      PTSUNNY   85  61  43 S7        30.00F
HOLLAND        MOSUNNY   87  66  49 SE7       29.97F
GRAND RAPIDS   PTSUNNY   87  59  38 SW9       29.98F
KALAMAZOO      MOSUNNY   87  61  41 VRB5      29.98F
MARSHALL       MOSUNNY   84  63  47 E3        29.99F
MOUNT PLEASANT MOSUNNY   84  60  45 E7        30.01F
MUSKEGON       MOSUNNY   86  62  44 SW13      29.97F
STURGIS        PTSUNNY   86  67  52 S6        29.99F
$$
MIZ016>042-162100-
NORTHERN LOWER MICHIGAN

CITY           SKY/WX    TMP DP  RH WIND       PRES   REMARKS
ALPENA         MOSUNNY   73  63  70 E14       30.07F
BEAVER ISLAND  SUNNY     75  64  66 E13       30.03S
BELLAIRE       CLOUDY    80  58  47 SE7       29.99F
CADILLAC       MOSUNNY   82  59  46 SE8       30.01F
CHARLEVOIX     MOSUNNY   77  63  61 N8        30.03F
GAYLORD        CLOUDY    76  58  53 E8        30.03F
HOUGHTON LAKE  MOSUNNY   78  61  55 SE9       30.04F
OSCODA         PTSUNNY   72  62  70 E9        30.07S
PELLSTON       MOSUNNY   79  61  53 E10       30.02F
TRAVERSE CITY  PTSUNNY   83  59  44 SE9       29.97F
LUDINGTON      SUNNY     77  59  53 SW8       29.98F
$$
MIZ007>008-015-162100-
EASTERN UPPER MICHIGAN

CITY           SKY/WX    TMP DP  RH WIND       PRES   REMARKS
KINROSS        CLOUDY    72  60  66 E13       30.06F
MACKINAC ISLAN SUNNY     68  63  84 E18       30.05F
NEWBERRY       MOSUNNY   73  61  65 SE8       30.02F
S. S. MARIE    PTSUNNY   75  59  57 VRB7      30.05F
$$
MIZ004>006-011>014-085-162100-
CENTRAL UPPER MICHIGAN

CITY           SKY/WX    TMP DP  RH WIND       PRES   REMARKS
MANISTIQUE     MOSUNNY   72  59  62 SE10      30.02F
ESCANABA       SUNNY     70  63  78 SE9       30.01F
MENOMINEE      SUNNY     71  56  58 E10       30.00F
SAWYER-GWINN   SUNNY     73  52  46 SE6       30.02F
$$
MIZ001>003-009>011-084-162100-
WESTERN UPPER MICHIGAN

CITY           SKY/WX    TMP DP  RH WIND       PRES   REMARKS
IRON MOUNTAIN  MOSUNNY   74  54  49 E8        29.99F
HOUGHTON       SUNNY     67  57  70 E10       30.00F
COPPER HARBOR    N/A     68  56  65 MISG      30.00F
IRONWOOD       CLOUDY    72  57  59 SE5       29.97F
$$

ABBREVIATIONS USED IN REMARKS
   TC - TEMPERATURE IN CELSIUS
  WCI - WIND CHILL INDEX
   HX - HEAT INDEX
  VSB - VISIBILITY





USA.gov is the U.S. government's official web portal to all federal, state and local government web resources and services.